| time (UTC) | temp F | wind direction | speed knots | gust knots | rain 1hr in | rain 24hr in | rain mn in | humidity % | barometer mb |
| 20260504141225 | 66 | 42 | 0.0 | 1.7 | 0.00 | 0.00 | 0.00 | 50 | 1001.0 |
| 20260504080824 | 43 | 0 | 0.0 | 0.0 | 0.00 | 0.00 | 0.00 | 85 | 1004.0 |
| 20260504050716 | 47 | 312 | 0.0 | 0.0 | 0.00 | 0.00 | 0.00 | 77 | 1006.0 |
| 20260504045212 | 48 | 6 | 0.0 | 0.0 | 0.00 | 0.00 | 0.00 | 74 | 1006.0 |
| 20260504043707 | 49 | 16 | 0.0 | 0.0 | 0.00 | 0.00 | 0.00 | 75 | 1006.0 |
| 20260504042202 | 50 | 326 | 0.0 | 0.0 | 0.00 | 0.00 | 0.00 | 73 | 1006.0 |
| 20260504040659 | 50 | 103 | 0.0 | 0.0 | 0.00 | 0.00 | 0.00 | 72 | 1006.0 |
| 20260504035155 | 51 | 84 | 0.0 | 0.0 | 0.00 | 0.00 | 0.00 | 68 | 1006.0 |
| 20260504033652 | 52 | 68 | 0.0 | 0.0 | 0.00 | 0.00 | 0.00 | 67 | 1007.0 |
| 20260504032148 | 54 | 182 | 0.0 | 0.9 | 0.00 | 0.00 | 0.00 | 67 | 1007.0 |
| 20260504030644 | 54 | 52 | 0.0 | 0.9 | 0.00 | 0.00 | 0.00 | 66 | 1007.0 |
| 20260504025139 | 56 | 68 | 0.0 | 0.0 | 0.00 | 0.00 | 0.00 | 64 | 1007.0 |
| 20260504023636 | 57 | 72 | 0.0 | 0.0 | 0.00 | 0.00 | 0.00 | 60 | 1006.0 |
| 20260504022131 | 59 | 85 | 0.0 | 0.0 | 0.00 | 0.00 | 0.00 | 52 | 1006.0 |
| 20260504020627 | 61 | 51 | 0.0 | 0.0 | 0.00 | 0.00 | 0.00 | 49 | 1006.0 |
| 20260504015124 | 63 | 113 | 0.0 | 0.0 | 0.00 | 0.00 | 0.00 | 45 | 1006.0 |
| 20260504013618 | 65 | 106 | 0.0 | 0.0 | 0.00 | 0.00 | 0.00 | 43 | 1006.0 |
| 20260504012114 | 67 | 38 | 0.0 | 0.9 | 0.00 | 0.00 | 0.00 | 40 | 1006.0 |
| 20260504010611 | 68 | 75 | 0.0 | 0.9 | 0.00 | 0.00 | 0.00 | 39 | 1006.0 |
| 20260504005109 | 70 | 134 | 0.0 | 0.9 | 0.00 | 0.00 | 0.00 | 37 | 1005.0 |
| 20260504003603 | 71 | 130 | 0.0 | 0.9 | 0.00 | 0.00 | 0.00 | 36 | 1005.0 |
| 20260504002100 | 72 | 124 | 0.9 | 1.7 | 0.00 | 0.00 | 0.00 | 35 | 1005.0 |
| 20260504000556 | 74 | 120 | 0.0 | 0.9 | 0.00 | 0.00 | 0.00 | 35 | 1005.0 |
| 20260503235052 | 74 | 104 | 0.9 | 1.7 | 0.00 | 0.00 | 0.00 | 34 | 1005.0 |
| 20260503233548 | 74 | 126 | 0.0 | 0.9 | 0.00 | 0.00 | 0.00 | 34 | 1005.0 |
| 20260503232043 | 74 | 128 | 0.0 | 0.9 | 0.00 | 0.00 | 0.00 | 35 | 1005.0 |
| 20260503230540 | 75 | 134 | 0.9 | 1.7 | 0.00 | 0.00 | 0.00 | 34 | 1005.0 |
| 20260503225035 | 75 | 136 | 0.9 | 1.7 | 0.00 | 0.00 | 0.00 | 33 | 1005.0 |
| 20260503223531 | 76 | 130 | 0.9 | 1.7 | 0.00 | 0.00 | 0.00 | 35 | 1005.0 |
| 20260503222026 | 76 | 134 | 0.9 | 0.9 | 0.00 | 0.00 | 0.00 | 36 | 1005.0 |
| 20260503220522 | 76 | 133 | 0.9 | 0.9 | 0.00 | 0.00 | 0.00 | 36 | 1005.0 |
| 20260503215018 | 76 | 124 | 0.9 | 0.9 | 0.00 | 0.00 | 0.00 | 35 | 1005.0 |
| 20260503213515 | 76 | 121 | 0.9 | 3.5 | 0.00 | 0.00 | 0.00 | 36 | 1005.0 |
| 20260503212012 | 77 | 132 | 0.9 | 1.7 | 0.00 | 0.00 | 0.00 | 38 | 1005.0 |
| 20260503210509 | 77 | 129 | 0.9 | 2.6 | 0.00 | 0.00 | 0.00 | 37 | 1005.0 |
| 20260503205003 | 77 | 133 | 0.0 | 0.9 | 0.00 | 0.00 | 0.00 | 37 | 1005.0 |
| 20260503203458 | 76 | 133 | 0.9 | 2.6 | 0.00 | 0.00 | 0.00 | 36 | 1005.0 |
| 20260503201955 | 77 | 127 | 0.9 | 1.7 | 0.00 | 0.00 | 0.00 | 38 | 1005.0 |
| 20260503200453 | 76 | 138 | 0.9 | 2.6 | 0.00 | 0.00 | 0.00 | 36 | 1005.0 |
| 20260503194947 | 76 | 76 | 0.9 | 1.7 | 0.00 | 0.00 | 0.00 | 37 | 1005.0 |
| 20260503193444 | 75 | 116 | 0.9 | 2.6 | 0.00 | 0.00 | 0.00 | 40 | 1005.0 |
| 20260503191940 | 74 | 118 | 0.9 | 1.7 | 0.00 | 0.00 | 0.00 | 41 | 1005.0 |
| 20260503190436 | 73 | 128 | 0.9 | 1.7 | 0.00 | 0.00 | 0.00 | 41 | 1006.0 |
| 20260503184930 | 72 | 116 | 0.9 | 0.9 | 0.00 | 0.00 | 0.00 | 44 | 1006.0 |
| 20260503183427 | 71 | 58 | 0.0 | 0.9 | 0.00 | 0.00 | 0.00 | 45 | 1006.0 |
| 20260503181923 | 70 | 93 | 0.9 | 1.7 | 0.00 | 0.00 | 0.00 | 45 | 1006.0 |
| 20260503180419 | 69 | 89 | 1.7 | 4.3 | 0.00 | 0.00 | 0.00 | 46 | 1006.0 |
| 20260503174916 | 68 | 29 | 1.7 | 4.3 | 0.00 | 0.00 | 0.00 | 46 | 1007.0 |
| 20260503173412 | 68 | 18 | 0.9 | 1.7 | 0.00 | 0.00 | 0.00 | 46 | 1007.0 |
| 20260503171907 | 66 | 36 | 0.9 | 2.6 | 0.00 | 0.00 | 0.00 | 46 | 1007.0 |
| 20260503170403 | 66 | 45 | 1.7 | 2.6 | 0.00 | 0.00 | 0.00 | 47 | 1007.0 |